Theta_e
315 315 315 316 315 316 316 316 316 317 318 319 320 321 321 321 321 320 320 320 320 321 322 322 323 323 323 323 321 320 319 319 318 317 315 314 313 312 311 311 311 311 311 310 310 311 311 311 311 310 310 309 309 309 308 308 308 308 309 309 308 309 309 309 310 310 308 307 307 307 307 307 306 306 306 306 306 306 306 306 306 306 306 306 306
316 315 315 315 315 315 315 315 316 316 317 317 317 319 320 321 321 321 320 320 320 320 321 322 322 322 323 322 321 320 319 319 318 317 314 313 313 312 311 311 310 311 310 310 311 311 311 310 310 310 309 309 308 308 308 308 308 308 308 308 308 308 308 309 309 309 308 307 307 306 306 306 306 305 305 306 305 305 305 305 305 305 305 305 305
315 314 314 315 315 315 315 314 315 315 316 317 317 317 319 319 320 320 320 320 320 320 321 322 322 322 322 321 321 319 318 318 317 315 314 313 313 312 311 311 310 309 309 310 311 310 310 310 310 309 309 308 308 308 308 307 307 307 307 307 308 308 308 308 308 308 307 307 306 306 306 306 305 305 305 304 304 304 304 304 304 304 304 304 303
313 312 314 314 314 315 315 313 314 315 315 316 317 318 318 319 319 320 320 320 320 320 320 321 322 322 321 321 320 319 317 316 316 314 313 313 312 312 312 311 310 308 309 310 310 309 309 309 309 309 308 308 308 307 307 307 307 307 307 307 307 307 307 307 307 307 307 306 306 306 305 305 304 304 304 304 303 303 303 303 303 303 302 302 302
312 311 312 313 312 314 315 313 312 313 314 315 317 318 318 319 319 319 320 320 320 320 320 320 321 321 321 320 320 318 315 314 314 313 313 313 313 312 313 312 310 308 309 310 309 309 309 309 308 308 308 307 307 307 307 307 307 307 307 307 307 307 307 307 307 307 306 306 306 305 305 304 304 304 304 303 303 303 302 302 302 302 302 302 302
310 310 310 310 310 311 313 313 312 312 313 313 314 316 317 318 318 319 319 319 320 320 320 320 320 320 320 320 320 318 314 313 314 313 313 314 313 313 313 312 310 309 309 310 309 309 309 309 309 308 308 307 307 307 307 307 307 307 307 307 306 306 306 306 306 306 306 305 305 305 304 304 303 303 303 302 302 302 302 301 301 301 302 302 302
307 307 308 308 308 308 310 312 312 311 313 313 313 313 314 315 317 318 318 319 319 319 320 320 320 319 319 318 318 317 314 313 314 314 314 314 313 313 313 312 311 310 310 309 309 309 309 309 308 307 307 307 307 307 306 306 307 307 307 307 306 306 306 306 306 306 305 305 304 304 304 303 303 303 302 302 302 301 301 301 301 301 302 302 302
307 307 306 306 307 307 307 310 312 312 313 312 311 311 312 313 314 315 317 318 318 318 319 319 319 319 318 317 317 316 314 314 314 315 314 314 314 313 313 313 311 310 310 310 309 310 309 308 307 306 306 307 306 306 306 306 306 306 306 306 306 306 305 305 305 305 304 304 303 303 303 303 302 302 302 302 301 301 301 301 301 301 302 302 302
307 307 306 306 306 306 306 308 311 314 313 311 310 309 310 311 312 314 315 317 318 318 318 318 319 319 318 317 316 316 315 314 314 315 315 314 314 313 314 313 312 310 310 310 309 309 309 308 307 306 306 307 306 306 306 306 306 306 306 305 305 305 304 304 304 303 303 303 302 302 302 302 302 301 301 302 301 301 301 301 301 301 301 302 302
307 307 306 306 305 305 305 307 310 314 313 310 308 308 308 308 310 313 314 315 317 318 317 317 318 319 318 317 316 316 315 315 315 315 315 314 314 314 314 313 312 311 310 309 309 309 309 308 307 307 307 306 306 306 306 306 306 305 305 304 303 303 303 303 302 302 302 301 301 301 301 301 301 301 301 302 301 301 301 301 301 301 301 302 302
307 307 306 306 305 305 305 307 309 312 312 309 307 307 307 306 308 311 314 315 316 317 318 317 318 318 318 318 317 317 316 316 316 316 315 315 314 313 313 313 312 311 310 309 309 309 308 308 307 307 307 306 306 306 306 306 305 305 304 303 302 302 302 301 301 301 301 301 301 301 301 301 301 301 301 302 301 300 300 300 300 300 301 301 301
307 306 306 306 305 305 306 308 309 309 309 307 306 307 307 306 306 309 312 314 315 316 317 317 317 317 317 318 318 318 318 317 317 316 316 316 316 314 313 313 313 311 310 309 309 309 308 307 307 306 306 306 306 306 306 305 305 304 303 302 301 300 301 300 300 301 300 300 300 300 300 300 300 301 301 301 300 299 299 299 300 300 300 300 300
306 306 306 306 305 306 307 308 308 307 307 307 307 306 306 305 306 308 311 314 314 315 315 315 316 317 317 317 317 317 318 317 317 317 317 316 316 314 314 313 312 311 309 309 309 309 308 307 307 306 306 306 306 306 306 305 304 303 302 302 301 301 301 301 300 301 301 301 300 300 300 300 300 300 300 300 299 299 298 299 299 299 300 300 300
305 305 305 306 306 307 307 307 307 306 307 307 307 307 307 306 306 307 310 313 314 314 315 315 316 317 316 316 317 317 317 317 317 317 317 317 316 314 313 313 312 310 309 310 310 309 307 307 307 306 306 307 307 307 307 305 304 303 302 302 302 301 301 301 301 301 301 302 301 301 301 300 300 300 300 300 299 298 298 299 299 299 300 300 301
304 305 305 306 306 306 306 306 306 306 307 307 307 307 307 307 307 307 309 313 314 314 315 315 316 317 317 317 317 316 316 316 317 317 316 317 317 315 312 312 311 310 310 311 310 309 307 306 306 305 305 306 307 307 307 305 304 303 302 302 302 301 301 301 301 301 302 302 302 302 301 301 301 301 301 300 300 299 298 298 298 299 299 301 301
304 305 306 306 306 306 306 306 306 306 306 307 307 307 307 307 307 307 309 313 314 314 314 314 315 316 317 317 317 316 316 316 316 317 316 317 317 315 312 310 311 311 311 311 310 309 308 306 304 303 302 303 305 307 306 305 304 303 303 302 302 301 301 300 300 301 302 303 303 303 302 302 302 302 301 301 300 299 297 297 298 298 299 300 301
305 305 306 306 305 305 306 306 306 306 306 306 307 307 307 307 307 307 308 312 314 314 313 313 314 315 316 316 316 316 316 316 316 316 316 316 316 314 311 310 311 311 311 311 310 309 309 306 302 301 300 302 305 306 305 305 304 303 303 302 302 302 301 300 300 301 302 302 303 303 303 303 302 302 301 301 300 298 297 297 299 300 300 301 301
305 306 305 305 305 305 305 306 305 306 306 306 307 307 307 307 307 307 307 310 314 314 313 313 313 314 315 316 315 316 316 316 316 315 315 315 315 314 311 310 310 311 311 311 309 309 309 306 301 300 302 304 305 305 304 304 303 303 302 302 302 302 302 300 300 301 302 302 302 303 303 303 302 302 301 301 299 296 296 298 299 300 301 301 301
305 305 305 305 305 305 305 306 305 305 306 306 306 307 307 306 306 306 306 309 312 314 314 312 312 313 314 314 314 315 315 315 314 314 314 314 314 313 311 310 310 311 311 310 309 309 309 306 300 300 304 305 305 304 304 303 303 303 302 303 303 302 300 298 298 298 299 299 301 302 302 302 302 302 301 299 297 297 298 300 300 300 301 301 300
305 305 305 305 305 306 305 306 306 306 306 307 307 306 306 306 306 307 308 310 313 313 312 311 311 312 313 313 313 314 314 314 314 314 314 314 312 311 310 310 310 311 310 309 309 308 309 307 302 301 304 305 304 304 303 303 303 303 302 303 302 300 298 295 294 293 293 294 296 298 299 300 299 299 299 298 298 300 302 302 301 301 301 301 300
305 305 305 305 305 306 306 306 306 306 305 306 307 307 306 306 307 308 309 310 311 310 308 307 307 308 309 311 312 313 313 313 314 314 314 314 313 311 310 310 311 310 309 308 308 308 309 309 304 301 302 305 305 304 303 302 302 303 302 301 300 299 298 296 294 291 289 289 290 292 293 293 293 295 297 299 300 302 302 302 302 302 302 301 301
305 305 305 305 305 306 306 305 305 305 304 305 306 307 306 306 307 307 308 308 308 307 306 306 306 306 306 307 309 312 313 314 314 314 314 314 313 312 311 311 311 309 308 307 307 307 309 309 305 300 300 303 304 304 303 302 302 302 301 300 299 299 300 299 297 295 291 288 288 288 289 290 292 295 299 301 302 302 301 302 302 302 302 302 301
305 305 305 305 305 305 305 304 304 304 305 305 306 307 306 306 306 307 307 307 307 307 306 306 306 306 306 306 306 308 310 312 313 313 313 313 313 312 312 311 310 309 308 307 307 308 309 309 305 299 299 301 304 305 304 304 303 302 301 301 301 300 300 300 300 298 292 288 287 288 290 294 297 298 301 302 302 302 301 302 302 302 302 302 302
305 304 304 305 305 304 304 304 304 304 305 305 306 306 306 305 305 306 306 307 307 307 307 307 307 307 307 307 307 307 308 309 311 312 313 313 313 312 312 311 310 309 308 307 308 308 308 307 304 299 299 301 304 305 305 305 304 304 303 303 302 301 301 300 301 299 294 289 287 289 294 298 298 299 302 303 302 301 302 302 302 302 302 302 302
304 304 304 305 304 304 303 303 304 304 304 305 305 305 305 305 305 305 306 306 306 306 306 307 307 308 308 308 308 308 307 307 308 310 312 312 312 312 311 310 309 308 307 307 307 307 307 307 303 299 300 303 305 305 305 305 305 305 304 304 303 302 302 300 300 300 296 290 288 291 296 298 297 299 303 303 302 302 302 302 302 302 302 301 301
303 303 304 304 304 303 303 303 303 303 303 304 304 304 304 304 304 305 305 305 305 305 306 306 307 308 308 308 308 308 307 307 308 309 310 311 311 312 311 310 309 308 306 306 305 305 306 305 302 300 302 304 305 305 306 305 305 304 304 304 304 303 302 301 301 300 297 291 288 292 297 297 297 299 302 302 302 302 302 302 302 302 301 300 300
303 303 303 303 303 303 303 303 303 303 303 303 303 304 304 304 304 304 304 304 305 305 305 306 307 307 307 307 308 307 307 307 307 308 309 309 310 310 311 311 310 308 307 306 305 305 305 304 302 302 303 303 304 305 305 305 304 304 304 304 303 303 302 301 301 300 297 291 288 291 295 297 296 298 301 302 302 302 302 302 302 301 301 300 300
302 302 302 302 302 301 302 302 303 302 302 302 303 303 304 303 303 303 303 303 303 304 305 307 306 306 306 306 306 306 306 306 306 306 307 308 308 309 310 310 310 309 308 307 305 304 304 303 302 301 302 302 303 303 303 303 303 304 304 303 303 302 301 300 300 300 298 292 288 290 294 296 296 297 299 301 301 302 302 302 302 302 301 300 299
302 302 302 302 300 299 300 301 302 302 302 302 302 302 303 303 303 303 303 303 303 304 305 306 306 305 305 305 304 304 305 305 305 305 306 307 307 308 309 309 309 309 309 308 305 303 303 302 301 301 301 301 301 301 301 301 302 303 303 302 302 301 300 299 300 300 299 294 290 289 293 296 296 296 297 299 301 301 302 302 302 301 300 299 299
302 302 302 301 299 297 297 300 302 302 302 302 301 302 303 303 303 303 303 303 304 305 306 306 305 305 305 304 303 303 303 304 305 305 306 307 307 308 309 309 309 308 308 307 304 302 301 301 301 301 300 299 299 299 299 299 301 302 301 300 300 300 299 298 299 300 298 295 292 289 291 294 296 296 297 299 300 301 302 302 302 301 300 299 299
301 302 301 299 297 295 295 297 299 301 302 301 301 301 302 303 303 303 303 303 304 306 306 306 304 304 303 303 303 303 303 303 304 304 305 306 307 308 308 308 307 306 306 305 304 302 301 300 300 300 299 298 298 298 297 298 299 300 300 299 299 299 298 298 299 299 298 296 293 290 290 293 295 296 296 298 299 299 301 301 301 301 300 299 299
301 301 300 298 297 296 295 295 296 298 300 301 301 301 301 301 302 303 303 303 303 304 306 305 304 303 303 303 303 302 302 302 302 302 303 304 305 307 307 308 307 306 304 303 302 302 301 300 299 299 299 298 298 298 297 297 298 300 300 300 299 300 299 299 299 299 297 295 293 290 290 293 295 296 296 297 297 297 298 300 300 301 301 299 298
301 300 300 299 298 297 296 295 295 296 299 300 300 300 300 300 300 301 303 303 302 303 304 304 305 304 304 303 303 302 302 301 301 301 301 302 303 304 306 307 308 307 304 302 301 301 301 300 299 299 299 299 299 299 297 297 298 299 299 300 299 299 299 297 296 295 294 293 292 290 290 293 295 296 296 296 296 296 297 298 299 300 300 299 298
300 300 300 299 298 298 297 295 294 295 297 299 300 300 299 299 299 300 301 303 303 302 303 303 304 304 304 304 303 303 302 302 301 301 301 301 301 302 302 304 305 305 303 302 301 301 300 300 300 300 299 299 300 299 298 298 298 297 298 299 299 299 298 295 293 293 294 293 291 290 290 293 295 296 296 296 296 296 296 297 298 298 299 299 298
300 300 300 299 299 298 297 295 294 295 296 298 299 299 299 299 299 299 300 301 302 302 302 303 303 303 303 304 303 303 303 302 301 301 301 301 301 300 300 301 301 300 300 300 300 300 300 299 300 300 300 300 300 300 299 299 298 297 297 298 298 298 297 295 293 294 295 294 291 289 290 293 295 295 296 296 296 296 296 297 298 299 299 300 299
300 300 300 299 299 298 297 295 293 294 295 297 298 298 298 299 299 299 301 302 302 302 302 302 302 303 303 303 303 303 303 302 302 301 301 301 301 300 300 300 299 298 298 299 299 299 299 299 299 300 299 300 300 299 299 298 298 297 297 297 298 298 297 295 293 294 295 294 293 291 292 293 295 296 296 296 296 296 296 297 298 299 300 301 301
300 300 300 299 299 298 297 295 293 293 294 296 297 298 298 299 299 299 301 302 302 302 302 301 301 302 303 303 303 303 303 303 302 302 302 301 301 300 300 299 299 298 298 298 298 298 298 298 299 299 299 299 299 299 299 298 298 297 297 297 298 297 295 293 294 294 294 293 293 293 294 294 295 296 296 296 296 296 296 296 297 299 300 301 301
300 300 300 299 299 298 297 296 295 293 293 295 297 298 298 299 299 299 301 303 302 301 301 301 301 302 303 303 303 303 303 303 302 302 301 301 300 300 299 299 298 298 298 297 297 296 296 296 297 297 297 298 298 298 298 298 298 298 297 297 297 297 294 293 293 294 293 293 294 294 295 296 296 296 296 296 296 295 296 296 296 298 299 300 299
300 299 299 299 298 298 297 296 295 293 292 294 296 298 298 299 299 299 301 302 302 301 301 301 301 301 302 303 303 303 303 302 302 302 301 300 300 299 299 298 298 298 297 297 296 295 295 295 296 295 295 296 297 297 297 297 297 297 297 297 296 296 294 293 293 293 293 294 295 295 295 296 297 297 297 296 296 295 295 296 296 296 298 298 299
299 299 299 298 298 298 297 296 295 293 292 293 296 298 299 298 299 300 301 302 301 301 301 301 301 301 301 302 303 303 303 302 301 301 300 300 299 299 298 298 298 297 297 296 295 295 294 295 295 295 295 295 296 296 296 296 296 295 294 294 294 294 294 294 293 293 293 295 295 296 296 296 297 297 297 296 296 295 295 295 295 296 296 297 297
299 299 299 298 298 298 297 296 295 293 292 293 296 298 298 298 299 301 302 301 300 301 300 300 300 300 300 301 302 302 301 301 300 299 298 298 298 298 297 297 297 297 296 295 294 293 293 294 294 295 294 294 295 295 295 295 294 294 293 293 293 293 293 293 293 293 294 294 295 296 296 296 297 297 296 296 296 295 294 295 295 296 296 296 297
299 299 299 298 298 297 296 295 294 293 293 295 297 297 297 298 300 302 301 300 300 301 300 299 299 299 299 299 300 300 300 299 297 297 296 296 297 297 297 297 297 296 295 294 293 292 293 293 294 294 294 294 294 294 294 294 294 294 294 294 293 293 292 292 292 292 293 294 295 295 295 296 296 296 296 296 295 294 294 295 295 296 296 296 296
299 299 298 298 298 297 295 294 294 293 294 296 297 297 298 300 301 301 301 300 300 300 299 299 298 298 297 298 298 298 298 297 296 297 297 297 297 297 297 298 297 296 294 293 292 292 293 293 294 294 294 294 294 294 294 294 295 295 295 296 296 295 294 292 291 292 292 294 295 295 295 295 295 295 295 295 294 294 294 294 295 295 296 296 296
299 298 298 298 297 296 295 294 294 295 296 297 297 297 299 301 301 301 300 300 300 299 299 298 298 297 297 297 298 297 297 296 297 297 296 296 296 297 297 297 297 296 294 292 292 292 292 293 294 295 295 295 295 295 295 295 296 297 297 297 297 297 297 295 293 292 292 293 295 296 295 294 294 294 293 293 293 294 294 294 294 295 296 296 296
298 298 298 297 296 295 294 295 296 296 297 296 297 298 300 300 300 300 299 299 299 298 298 297 297 296 297 297 297 297 297 296 296 296 295 295 295 296 297 297 297 297 295 293 292 292 292 293 294 295 295 296 296 296 296 296 296 297 297 297 297 297 297 296 295 293 292 292 294 295 295 293 292 293 293 293 293 293 294 294 294 295 296 296 296
298 297 297 297 296 295 295 295 296 297 296 296 297 298 299 299 299 299 298 298 297 297 296 295 295 295 295 295 296 296 296 296 295 295 295 295 294 295 296 297 297 297 296 295 294 293 293 293 294 294 294 295 296 297 297 296 296 297 297 297 297 297 297 296 296 295 293 293 293 294 293 292 292 293 293 293 293 293 293 294 294 295 295 296 296
298 297 297 296 295 295 295 296 296 296 296 297 297 297 297 298 297 297 297 296 295 295 295 293 292 292 292 292 293 294 294 294 294 294 294 294 294 293 294 295 296 296 296 296 295 295 294 295 295 295 295 295 296 297 297 297 297 297 297 297 297 297 297 297 296 296 294 294 293 294 293 292 292 293 293 293 293 293 293 294 294 295 295 296 296
297 297 296 295 295 295 296 296 296 296 296 296 296 296 296 296 296 295 295 294 294 294 293 291 290 290 290 289 290 291 292 293 293 293 293 293 293 292 293 293 294 294 294 294 294 294 294 295 295 295 296 296 296 297 297 297 297 298 297 297 297 297 297 297 297 297 296 294 293 293 293 293 293 293 293 293 293 293 293 294 294 295 295 295 295
297 297 296 295 295 295 295 295 295 295 295 295 295 295 295 294 294 294 293 293 292 292 291 290 289 289 289 289 289 290 291 292 292 292 292 293 292 292 292 293 293 293 293 293 293 293 293 293 293 294 295 296 296 297 297 297 298 298 297 297 297 298 298 297 297 297 297 296 294 294 294 293 293 293 293 293 293 293 293 293 294 294 294 295 295
297 296 295 295 295 295 295 295 294 294 294 294 294 294 293 293 293 292 292 291 291 290 289 289 288 288 288 288 288 289 290 290 290 290 291 292 292 292 292 292 291 291 291 292 292 292 292 292 292 292 293 294 296 296 297 296 296 296 297 297 297 298 298 298 298 297 298 298 296 295 294 294 293 293 293 293 293 293 293 293 293 294 294 294 294
297 295 295 294 295 295 294 294 294 293 293 293 293 293 292 292 292 291 291 291 290 289 288 288 288 288 288 288 288 288 288 288 288 288 289 290 290 291 290 290 290 290 290 291 291 291 291 291 291 291 291 292 293 294 294 294 294 294 295 296 297 298 298 298 298 298 298 298 297 295 294 294 294 293 293 293 293 293 293 293 293 293 293 294 294
Wind_Speed
22 23 22 20 20 19 18 17 17 16 15 15 16 16 17 17 17 18 19 19 19 19 21 23 24 26 28 29 30 30 28 26 24 22 20 18 16 14 12 12 11 11 10 9 9 9 9 8 7 7 7 6 5 4 4 4 4 4 4 4 5 6 8 9 7 4 6 6 4 2 1 2 3 4 4 4 3 4 4 5 5 6 6 6 7
21 23 22 22 22 22 21 21 20 19 17 16 15 15 14 15 15 16 19 19 19 20 20 21 22 25 28 29 30 31 30 29 26 24 22 20 17 14 13 12 11 11 11 11 11 10 9 9 9 8 7 7 6 5 5 5 4 4 5 5 5 6 6 7 7 6 7 7 5 3 2 2 3 3 3 2 2 3 4 5 6 7 8 8 9
18 20 20 20 21 21 22 23 23 22 20 18 16 15 14 14 14 16 18 19 19 18 19 20 21 24 27 28 30 32 32 30 28 25 23 21 18 16 15 13 12 12 13 13 12 11 10 10 9 9 9 8 8 7 6 6 5 5 5 5 5 5 6 6 6 7 8 8 6 5 3 3 2 2 1 1 2 3 5 6 8 9 10 10 8
16 17 16 17 18 19 21 22 24 24 23 21 18 17 16 15 14 15 16 18 18 17 18 19 20 22 25 27 30 32 32 32 30 26 23 19 18 18 16 14 13 12 13 14 13 12 11 11 10 10 9 9 9 9 8 7 7 6 6 5 5 5 5 5 5 6 7 8 7 6 4 3 2 1 1 1 2 4 6 7 8 8 7 5 3
15 16 16 16 16 17 18 20 22 23 24 23 21 19 18 17 16 15 15 16 16 17 17 18 19 21 23 25 29 31 31 31 30 26 21 18 18 19 18 15 14 13 14 14 13 13 12 11 11 11 10 10 10 9 9 9 8 8 7 6 6 5 5 6 6 6 6 7 6 5 4 3 2 2 2 2 3 5 5 5 5 4 3 4 5
16 16 16 16 17 17 17 17 19 21 23 24 24 22 20 20 18 17 15 15 15 16 17 19 19 20 21 23 26 29 29 29 28 25 21 18 20 22 20 17 15 14 14 14 14 14 13 12 11 11 11 10 10 9 9 9 10 9 8 8 7 7 6 6 6 6 6 5 5 5 4 3 3 2 1 2 3 4 3 4 4 4 6 7 7
17 17 17 17 17 18 18 16 15 18 21 23 24 24 23 22 21 19 16 15 15 15 16 18 20 20 19 20 22 24 25 27 27 25 21 19 23 26 23 20 17 15 15 15 15 14 14 12 12 12 11 10 9 9 9 10 10 10 9 8 8 8 8 7 7 7 6 6 5 6 6 5 4 3 1 2 2 4 5 7 8 7 7 8 9
18 18 18 18 18 18 19 18 15 15 19 21 22 24 24 23 22 20 17 15 15 15 15 16 18 18 18 18 19 20 24 27 27 24 22 23 26 27 25 23 20 17 16 16 16 15 14 13 12 11 11 10 9 8 8 9 10 10 9 9 9 9 9 9 8 8 8 7 7 7 7 6 4 4 3 3 4 5 7 9 10 8 6 8 10
19 19 19 19 20 20 19 19 15 14 16 18 20 22 24 24 23 22 19 16 14 14 14 14 16 17 17 17 18 20 24 26 26 25 24 24 26 28 28 26 22 18 16 17 18 17 15 14 13 12 11 10 9 8 8 9 9 9 9 9 10 11 10 10 10 9 9 8 8 7 8 7 6 5 5 4 4 5 6 7 10 9 6 6 8
20 20 19 18 19 20 20 20 17 14 14 16 18 21 24 26 25 23 21 18 14 12 12 13 14 16 16 17 18 20 23 25 26 27 25 24 26 30 30 28 24 21 19 19 20 18 16 15 13 12 11 10 10 9 8 9 9 9 9 9 11 12 12 11 10 10 9 8 7 7 7 7 6 6 6 5 3 3 4 5 8 9 7 5 5
20 20 19 18 18 20 21 20 18 15 14 15 17 20 23 25 27 24 22 20 16 12 11 12 14 15 16 17 17 20 22 24 27 27 27 26 27 31 32 29 27 24 21 22 21 18 17 16 13 12 12 11 11 9 9 9 9 8 8 8 9 10 10 10 10 9 8 7 6 6 6 6 7 7 6 4 2 2 3 4 6 8 9 6 3
19 20 20 17 17 19 20 19 17 15 14 16 17 19 22 24 26 25 22 20 18 15 12 12 13 14 16 17 18 19 21 23 24 24 25 26 27 30 31 30 29 27 24 23 21 17 17 16 14 13 13 12 11 10 10 9 8 7 7 6 6 7 6 7 7 7 6 6 6 6 6 6 8 7 6 4 1 1 3 4 5 6 8 6 4
18 19 19 17 17 18 18 17 17 17 17 18 18 19 21 23 25 25 21 18 18 16 14 13 13 13 14 16 17 20 21 21 20 19 20 22 24 28 31 30 30 29 26 24 21 17 17 16 14 14 13 13 13 12 11 10 8 7 7 6 6 7 6 6 6 5 5 5 5 5 5 6 7 7 6 3 1 2 3 4 5 6 6 6 6
17 17 17 16 16 16 17 16 18 19 20 20 20 19 20 22 24 25 22 17 16 17 15 14 13 13 13 13 15 18 20 20 20 19 20 20 21 26 31 31 30 29 27 24 19 16 16 16 14 14 14 15 15 14 12 11 9 9 9 8 7 7 8 7 6 5 5 5 6 5 5 6 7 6 4 2 1 3 4 5 6 7 7 6 6
17 17 17 15 15 16 17 17 18 20 20 21 20 20 19 20 21 24 22 16 14 16 16 15 14 13 12 12 12 13 15 17 18 19 20 20 20 23 28 30 29 29 27 23 19 16 15 14 13 13 14 16 16 15 14 13 11 11 11 10 9 8 8 8 7 6 6 7 7 6 6 6 6 5 4 4 4 4 6 7 7 8 7 6 4
17 16 15 15 16 17 18 18 18 19 19 20 20 20 19 19 19 22 22 16 12 14 16 15 14 13 12 12 11 11 11 12 15 17 19 21 22 24 27 29 29 29 26 22 20 18 15 14 13 12 12 14 16 16 15 14 13 12 12 11 10 8 7 8 8 8 7 7 7 6 7 8 8 8 7 7 7 6 7 8 9 8 7 6 4
16 15 15 16 17 19 19 19 19 19 19 19 20 19 19 20 20 21 22 18 12 12 14 15 14 12 12 11 11 11 10 9 11 14 16 19 21 23 26 28 28 26 24 22 21 19 16 13 13 13 14 15 16 16 16 15 14 13 13 13 11 9 8 8 9 9 8 8 7 7 8 9 8 8 8 8 8 8 9 9 8 6 5 4 3
14 15 16 17 18 18 19 19 20 20 20 19 18 18 19 21 21 22 22 19 13 10 13 14 13 11 10 9 10 10 10 10 10 11 12 16 20 22 25 27 26 24 22 22 22 20 17 12 11 13 15 15 14 14 15 15 15 14 14 13 11 11 9 9 10 10 9 9 8 8 8 9 8 8 9 9 9 9 10 9 7 5 5 4 3
13 14 15 16 18 18 18 20 21 20 19 17 17 18 20 21 22 23 23 20 14 10 11 12 13 11 9 7 8 9 10 9 9 9 10 12 18 23 25 26 26 24 23 23 22 20 18 13 11 13 15 13 11 11 13 15 15 15 14 13 12 11 9 8 9 10 11 11 10 9 9 9 9 9 9 10 10 10 9 8 7 6 6 5 4
13 14 15 16 17 17 18 20 19 18 18 17 17 19 20 22 22 22 21 18 13 10 11 12 12 12 10 7 7 7 9 9 8 8 8 9 14 22 26 26 26 26 25 24 23 22 20 17 14 15 16 14 11 10 11 14 15 15 14 14 13 10 6 6 8 9 11 12 13 13 13 12 12 11 10 10 9 8 6 7 7 6 5 5 4
13 14 15 16 16 17 18 18 17 17 18 18 18 19 20 21 20 19 18 16 14 13 13 12 13 13 12 10 7 6 7 8 8 7 7 8 9 16 23 26 26 26 24 24 24 23 21 19 17 17 18 16 13 11 11 12 14 14 15 14 11 8 6 5 6 7 8 10 12 13 14 14 12 11 10 10 8 7 7 7 7 6 5 4 4
14 14 15 16 16 16 16 16 17 19 19 19 18 18 19 20 19 18 18 18 16 16 15 15 15 15 14 14 11 8 6 6 7 7 7 7 7 10 16 21 24 24 22 22 22 22 21 19 18 18 19 18 16 14 13 12 13 14 14 13 11 9 8 7 6 7 8 8 10 11 11 10 10 11 10 9 9 9 9 7 6 6 6 5 4
14 14 15 15 14 14 14 16 18 19 19 19 18 17 19 19 19 19 19 19 18 17 17 17 18 17 16 16 14 11 8 6 5 6 7 8 7 7 10 16 20 22 22 22 22 23 22 20 17 18 20 20 19 17 15 14 15 15 15 14 13 12 11 9 8 8 8 8 9 9 7 7 9 10 10 10 11 10 9 8 7 7 6 4 4
13 14 13 13 12 13 15 17 17 17 18 18 17 18 19 19 19 18 18 18 17 17 17 17 18 18 18 17 16 14 11 8 6 5 5 6 8 8 9 13 17 20 22 22 23 22 21 18 15 16 19 20 19 17 17 17 18 18 17 16 15 14 13 12 10 9 9 9 8 7 6 6 8 9 11 13 13 11 9 9 8 7 5 4 3
13 13 12 11 11 13 16 16 16 16 17 17 18 18 19 19 19 18 17 17 16 17 17 17 17 18 18 17 16 16 14 10 7 4 3 4 6 8 9 12 16 19 21 21 21 21 19 16 14 15 17 17 16 16 16 18 20 22 21 20 18 17 16 14 11 10 10 10 8 8 7 6 7 10 13 15 14 12 11 10 9 7 6 4 3
12 12 12 11 12 14 16 16 16 17 17 17 17 17 18 18 19 18 17 17 17 17 17 16 17 17 17 16 16 16 15 12 7 4 4 4 5 7 8 10 13 17 19 20 19 19 17 14 14 15 15 16 16 15 14 14 15 20 23 23 21 20 19 16 13 12 11 10 9 9 8 7 7 10 14 16 15 13 13 12 9 8 7 5 4
11 12 12 13 13 15 16 17 17 17 18 18 17 17 17 18 18 19 18 17 17 17 16 16 16 16 16 16 16 15 14 13 9 7 6 6 6 6 8 10 12 14 17 19 20 19 17 15 15 16 17 18 18 18 16 13 13 16 21 23 23 22 21 18 15 12 11 11 9 10 10 9 8 10 13 16 16 14 14 13 11 10 8 6 4
11 12 13 14 15 16 16 16 16 17 18 18 18 18 18 19 19 18 17 16 16 16 15 15 15 14 13 14 14 14 14 13 12 9 7 6 6 6 7 9 11 13 16 18 20 20 19 17 16 17 18 19 20 19 17 16 14 15 19 22 24 23 21 19 17 14 12 12 11 11 13 12 10 10 12 15 16 16 15 14 12 12 10 7 5
12 13 14 15 16 17 16 16 15 16 18 19 18 17 17 18 19 18 16 14 13 12 11 11 12 11 11 11 11 12 13 13 13 11 9 7 6 6 6 6 8 10 13 17 19 19 18 18 18 18 19 20 20 19 18 17 16 16 18 22 23 23 22 21 19 17 14 13 13 14 15 14 12 11 11 13 15 16 16 16 14 13 11 8 6
13 14 15 15 16 17 17 17 16 16 17 18 19 18 16 15 16 17 17 14 11 8 7 9 11 11 11 10 9 9 10 11 12 12 12 9 7 7 7 6 6 7 10 13 16 17 18 19 19 20 20 20 20 20 19 18 17 17 19 21 23 23 23 22 21 18 16 15 15 15 16 16 15 13 12 13 14 15 16 17 16 15 12 9 7
13 14 14 15 16 16 17 17 17 17 17 17 18 19 18 16 15 15 16 15 11 7 6 8 10 11 11 11 10 9 9 10 11 12 12 11 8 6 6 6 7 8 9 10 14 18 20 20 20 21 22 21 21 21 20 19 19 19 20 21 22 23 23 22 22 20 18 19 18 17 18 18 17 15 15 15 14 15 16 17 17 16 13 10 8
12 12 12 13 15 16 17 17 17 17 17 17 17 17 19 19 17 15 15 15 13 9 6 6 7 8 9 10 10 10 11 12 12 12 11 11 9 7 5 5 6 7 8 9 13 18 20 19 19 21 22 22 23 23 22 21 21 21 21 21 22 23 23 22 22 21 21 21 20 19 20 20 18 16 16 15 15 15 16 18 19 18 16 12 9
11 11 11 13 14 16 17 18 19 18 17 16 17 16 16 17 17 17 16 15 14 12 9 6 6 7 7 8 9 10 11 12 13 13 12 11 9 7 5 4 5 4 6 10 13 17 19 19 20 20 21 23 24 24 23 23 23 22 22 22 23 22 21 19 19 19 19 20 20 20 22 22 20 17 16 16 16 16 16 18 20 19 17 14 11
11 11 11 12 14 16 17 19 19 19 17 16 16 17 16 15 15 15 16 16 16 16 15 11 7 7 7 7 7 8 9 11 12 13 13 13 12 10 7 4 3 2 5 9 13 16 17 19 21 21 22 23 24 23 23 24 24 23 24 24 24 23 20 18 17 17 16 16 17 19 22 22 21 19 17 16 17 16 16 18 20 20 18 16 13
12 12 12 12 13 15 17 19 19 19 18 17 16 16 16 15 13 13 12 12 14 16 16 14 11 8 7 5 5 5 7 9 11 11 12 13 13 12 10 8 5 3 3 7 12 15 16 17 19 21 22 23 23 23 23 24 24 24 24 25 24 23 22 21 19 17 15 15 16 19 22 22 21 19 17 16 18 18 17 18 20 22 22 19 16
14 14 13 13 14 16 18 19 20 19 19 17 16 16 16 15 13 11 9 9 10 12 14 15 14 11 8 6 5 3 3 6 8 10 12 13 13 12 11 10 8 5 5 6 9 12 15 17 19 20 21 22 23 23 23 23 23 23 23 23 23 22 22 21 19 17 16 15 16 19 21 21 20 19 16 16 18 18 18 18 19 22 23 23 20
16 16 15 14 15 16 18 20 21 21 19 18 17 16 16 15 13 10 8 7 9 10 12 14 15 13 10 8 7 5 3 4 6 9 11 12 12 13 12 10 9 7 7 8 8 11 13 15 17 19 20 21 21 22 22 21 21 21 21 22 22 21 20 19 17 16 15 15 16 20 21 21 21 20 19 18 19 19 19 19 18 20 22 23 22
17 18 17 15 15 16 19 21 23 23 21 19 17 16 16 15 13 9 7 6 7 9 11 12 14 14 12 11 9 7 5 5 7 8 10 11 12 13 13 12 10 9 9 9 10 11 13 14 15 16 17 18 19 20 20 20 19 19 19 20 21 19 18 17 16 15 15 15 16 19 22 23 23 22 22 22 21 21 21 20 19 19 21 22 22
18 19 18 16 16 17 19 22 24 25 23 20 18 16 15 15 13 9 6 5 6 7 9 11 12 13 12 12 10 9 8 8 9 11 12 12 12 13 14 13 12 11 10 10 10 11 12 13 13 14 15 15 16 17 18 18 18 18 19 20 20 18 17 17 16 15 13 14 15 18 22 24 24 23 23 23 22 22 22 22 21 20 20 21 22
19 19 19 17 17 18 20 22 24 25 23 20 18 16 14 14 12 8 5 4 5 6 8 9 11 11 12 12 10 9 9 9 10 11 12 12 13 14 14 14 13 12 11 12 12 12 12 12 12 12 12 13 14 14 15 16 16 16 16 16 16 17 17 17 16 15 13 12 12 15 19 20 21 22 23 23 22 21 22 23 22 21 20 20 21
19 19 19 18 18 20 21 23 25 25 22 20 18 15 14 12 10 7 5 4 4 5 6 8 9 9 10 10 9 8 8 8 9 10 11 11 12 13 13 13 13 12 12 13 13 12 10 10 10 10 10 10 11 12 12 12 12 11 11 12 13 14 15 15 16 15 14 12 11 11 13 15 17 19 20 22 21 21 22 23 22 21 20 20 21
19 20 20 20 20 21 22 24 25 24 21 19 16 14 12 11 8 5 5 4 4 5 6 7 8 8 9 9 8 7 6 7 8 10 11 11 11 12 13 13 12 11 12 13 12 9 8 8 7 7 8 9 10 10 9 10 10 9 9 10 11 12 13 14 15 16 15 15 14 12 10 12 14 16 18 20 20 20 21 22 22 21 20 20 20
20 20 20 20 21 21 21 23 23 22 19 17 14 12 10 8 6 5 5 5 4 5 5 6 7 8 8 9 9 8 8 8 9 10 10 10 11 12 13 13 12 11 12 12 8 5 6 7 6 5 5 5 6 7 7 8 8 8 7 8 9 10 11 13 15 16 17 18 18 17 15 14 15 17 18 19 19 19 20 21 21 21 20 20 21
21 21 21 21 21 20 20 20 20 18 16 14 12 10 8 7 6 5 5 5 4 4 5 5 6 7 7 8 8 8 8 8 8 8 8 9 10 11 12 13 12 11 12 10 6 3 4 5 5 5 4 3 2 3 4 5 6 7 7 8 9 9 11 14 17 18 19 18 18 19 20 19 19 19 19 19 20 20 20 20 21 21 21 20 22
22 21 21 21 20 19 19 17 16 14 13 10 9 7 6 5 5 5 5 4 4 3 4 4 5 6 6 7 8 7 6 6 7 7 8 10 10 10 11 12 12 11 11 9 6 5 6 6 5 5 5 4 3 4 5 7 9 9 10 10 11 10 11 13 16 18 19 19 20 22 22 22 20 19 19 20 21 22 21 20 20 21 22 22 23
23 22 21 20 19 17 16 13 11 10 8 7 6 6 5 5 5 5 5 4 4 4 4 4 5 6 6 6 7 7 6 6 6 7 7 9 9 9 10 11 11 11 11 9 7 7 7 8 8 8 8 7 7 7 8 9 10 12 13 13 12 12 12 11 11 14 17 19 20 21 22 21 19 18 19 21 23 23 22 21 21 22 24 24 24
22 21 20 19 17 15 12 10 8 7 6 6 6 6 5 5 5 4 4 4 4 4 4 5 5 6 7 7 7 7 6 6 6 6 7 7 8 9 10 10 11 11 11 10 9 9 8 9 10 11 10 10 10 10 11 10 10 10 11 12 13 13 13 12 10 10 13 16 17 17 17 17 17 18 19 22 23 23 22 21 21 23 24 23 23
22 21 19 18 16 13 12 10 8 7 7 8 8 7 6 5 4 3 3 3 4 5 5 5 5 6 7 7 8 8 7 7 6 6 8 9 9 10 10 11 11 11 11 11 12 11 10 9 10 11 11 12 12 12 12 12 11 10 10 10 11 13 13 12 11 10 9 10 12 12 11 13 16 18 19 21 23 24 23 21 21 22 23 23 23
22 20 18 17 15 14 13 12 10 10 10 10 9 8 7 5 4 3 2 3 4 5 6 6 6 7 7 8 8 8 7 7 7 7 8 10 10 10 10 10 10 11 11 13 14 14 13 12 11 10 10 11 12 13 13 12 12 11 11 11 12 12 11 10 11 11 10 8 7 8 8 10 14 18 20 21 22 23 22 22 21 22 23 23 23
21 19 18 16 15 14 14 13 12 12 11 11 10 9 7 5 4 3 3 2 3 5 5 6 7 7 7 7 8 7 6 6 7 7 8 9 10 10 10 10 10 11 12 13 15 15 15 14 13 12 10 9 9 9 10 9 10 11 12 12 12 12 11 11 11 12 11 10 9 9 10 11 14 18 20 21 21 21 21 21 21 22 23 23 24
22 19 17 16 15 14 14 13 13 12 12 10 9 8 6 5 5 4 4 3 3 4 4 5 6 6 6 7 8 8 7 6 6 7 7 8 9 9 9 10 11 12 13 14 15 15 14 14 13 12 11 9 6 4 3 4 5 8 10 11 12 12 12 12 12 12 12 11 10 11 11 12 14 17 20 20 20 19 20 21 21 22 22 22 24
Wind_Direction
15 14 14 13 11 9 6 2 358 348 336 327 320 318 321 323 320 314 309 304 297 289 281 272 262 252 242 233 229 228 224 218 215 215 214 212 214 218 220 222 223 225 227 223 212 205 208 215 224 231 234 236 237 234 228 226 231 231 227 228 225 221 219 216 214 199 191 192 190 203 248 309 318 326 331 329 320 307 300 299 298 301 308 317 322
16 14 14 16 15 13 12 9 6 359 349 338 328 325 322 322 322 317 311 308 303 295 287 279 269 259 249 238 229 225 223 218 213 211 210 207 207 212 216 218 221 223 222 217 212 211 215 219 223 226 227 233 238 240 238 229 228 232 228 228 229 224 221 219 213 201 196 199 203 217 259 299 311 330 332 310 292 288 293 302 307 311 314 316 317
17 13 13 14 14 14 12 10 8 5 0 351 340 335 330 324 322 318 314 314 311 303 294 286 275 264 256 245 233 226 220 215 211 209 205 203 206 211 214 216 221 221 217 215 217 221 221 218 217 218 220 227 237 244 248 244 240 240 231 227 230 229 230 229 223 213 207 208 216 231 256 284 305 335 340 314 314 316 316 320 319 318 317 316 316
19 14 15 13 11 12 11 9 8 6 4 0 352 345 340 333 328 321 318 317 316 311 303 293 281 268 256 245 236 228 217 210 206 203 200 203 210 213 213 216 220 218 215 216 221 222 217 212 214 219 224 230 237 243 246 248 246 245 241 235 230 228 231 232 233 227 218 214 218 229 247 269 280 275 246 289 329 333 330 327 323 323 326 332 354
18 16 18 15 12 11 9 7 8 7 6 4 360 354 348 341 333 326 323 321 319 316 309 299 288 274 259 246 239 230 217 206 200 194 193 204 218 220 217 216 216 214 216 220 222 219 215 214 218 224 230 234 237 241 245 246 246 245 244 239 230 226 226 227 233 237 231 223 216 218 227 237 239 235 250 286 313 330 339 343 339 343 25 71 76
15 15 15 13 11 11 8 6 8 8 6 5 3 360 353 346 339 330 325 323 321 315 308 301 293 281 266 250 239 231 219 206 198 193 192 202 220 224 222 219 215 212 216 222 222 220 219 221 225 228 231 232 234 239 244 248 247 244 241 239 234 229 226 227 232 235 234 229 218 216 221 217 204 202 248 322 330 340 5 42 52 72 92 85 74
8 8 8 8 7 6 4 4 4 4 4 4 3 2 359 352 345 337 326 318 317 313 305 299 293 284 271 255 240 231 221 207 199 198 198 204 218 225 224 221 216 212 216 221 223 224 224 226 229 229 227 228 233 240 245 247 248 245 242 239 237 234 231 230 230 229 229 227 224 224 224 216 198 176 125 78 67 43 37 43 52 75 90 74 63
0 359 359 2 4 2 1 358 354 357 1 1 1 1 0 357 352 346 335 319 311 309 306 300 293 283 271 259 247 235 222 209 202 203 205 208 217 224 227 224 217 212 215 220 223 225 226 229 232 228 224 227 235 242 244 242 242 242 244 245 247 243 237 231 229 230 233 234 232 227 217 208 191 166 134 115 99 61 43 40 43 58 84 69 53
355 352 350 353 358 358 358 355 349 350 355 358 1 360 359 358 355 352 347 333 314 305 304 303 298 286 269 255 245 231 220 211 208 211 213 214 220 226 229 226 219 213 213 216 220 224 227 231 231 227 225 229 233 234 234 235 238 242 248 256 255 246 236 232 232 234 238 237 230 215 202 195 186 167 140 118 97 56 41 43 43 51 88 87 53
352 349 344 346 351 353 354 351 347 348 352 358 1 359 356 355 353 352 353 346 331 312 301 296 293 288 274 255 242 231 224 220 219 220 220 224 229 231 229 226 221 216 215 213 214 220 226 228 228 226 226 227 227 226 226 230 237 245 258 264 257 245 236 234 234 235 236 228 209 193 186 185 181 164 142 124 103 51 33 39 41 46 69 86 56
347 347 343 343 349 350 349 348 349 354 356 358 2 358 352 351 350 348 351 351 344 329 312 298 288 285 279 265 249 240 236 232 230 230 231 234 236 233 228 225 221 218 215 212 212 217 222 223 222 221 222 222 221 221 225 230 237 250 261 261 250 240 233 228 223 219 218 208 193 190 186 179 170 157 146 141 120 37 14 22 30 36 46 53 39
342 342 341 343 348 348 346 347 352 360 360 358 0 357 349 347 346 343 344 349 348 340 329 317 305 295 286 276 265 255 250 244 239 238 238 238 237 233 229 225 222 219 215 212 213 216 219 220 217 217 220 222 221 219 222 229 238 246 249 245 231 216 204 202 199 197 201 200 198 200 192 175 165 159 158 158 136 6 348 357 8 19 29 29 12
342 342 341 344 349 351 351 350 353 358 358 357 357 354 349 346 345 341 337 341 348 346 338 329 324 318 304 289 277 270 266 260 254 250 246 240 236 233 230 227 223 218 214 212 213 216 220 220 213 212 216 218 220 221 222 228 233 229 223 225 220 204 191 191 198 205 211 212 213 212 199 181 169 163 164 166 161 321 321 332 341 352 4 3 357
347 346 345 347 351 355 357 355 353 352 352 352 350 349 348 344 342 340 334 333 344 350 346 337 328 322 317 306 289 278 274 271 269 264 255 246 238 232 229 227 223 216 214 216 217 218 223 222 215 212 214 215 218 220 222 224 224 218 216 221 223 218 213 215 222 231 234 235 240 231 210 192 177 170 179 206 258 297 304 310 316 324 337 341 345
346 345 345 348 351 354 356 353 351 348 347 346 344 342 343 341 339 338 334 329 338 348 350 346 336 326 322 318 303 288 278 271 270 270 263 254 246 236 228 223 220 217 218 221 221 218 222 224 221 221 218 218 222 225 225 222 219 218 221 221 221 224 228 231 235 239 247 253 252 238 219 210 206 209 236 252 259 279 287 290 299 306 317 325 333
341 343 345 348 350 351 352 349 347 346 344 341 338 337 339 340 341 340 335 327 332 346 348 347 344 335 325 319 310 301 292 275 268 270 268 260 251 237 224 218 218 220 221 223 222 220 221 220 219 223 224 225 229 230 227 222 216 218 222 218 218 231 238 235 233 236 248 256 252 242 231 229 232 237 243 247 252 266 272 276 287 291 297 309 314
342 347 349 350 349 347 345 344 344 344 342 339 337 336 339 341 342 342 338 328 326 341 346 345 344 337 325 320 315 307 305 297 281 275 271 264 252 234 220 215 218 221 222 223 222 222 223 219 217 224 230 230 229 227 225 220 213 216 221 217 222 240 245 235 231 234 247 254 251 246 238 235 237 235 236 242 250 260 265 270 280 280 276 284 287
350 352 350 348 344 340 340 341 342 342 341 340 340 340 342 342 340 339 338 332 324 335 344 340 339 339 331 323 321 315 312 311 303 292 281 267 252 235 222 217 218 221 224 225 224 224 225 219 218 231 235 230 225 223 222 218 212 214 219 219 228 244 246 239 235 237 248 254 251 246 240 238 238 233 234 245 252 257 260 263 269 268 261 258 254
354 349 344 340 337 336 339 341 340 342 344 345 345 344 344 342 338 334 334 331 325 332 344 339 335 342 342 325 316 315 312 307 304 306 300 276 250 232 221 215 215 219 224 226 225 226 225 216 215 231 237 228 220 224 223 218 215 218 220 222 233 243 241 237 238 241 248 251 248 244 240 239 241 240 241 246 252 258 258 253 249 247 255 267 265
344 341 337 336 336 337 340 341 342 349 355 354 349 347 346 343 340 336 334 332 332 340 348 345 343 350 354 339 320 315 310 304 303 312 316 294 252 229 219 216 218 222 224 224 223 224 223 217 213 223 231 225 218 223 223 217 218 220 220 222 230 234 230 233 244 249 249 248 247 245 243 244 246 243 239 242 251 253 234 219 222 227 247 276 273
336 337 336 337 338 337 340 346 351 356 359 356 351 349 349 348 349 351 350 349 352 355 353 350 350 355 359 354 345 335 323 313 311 311 314 311 271 235 227 227 228 227 224 222 221 221 222 221 214 216 224 225 221 222 220 213 214 216 217 219 223 225 231 247 263 271 263 254 250 248 247 249 245 234 230 237 237 216 193 191 200 211 232 261 270
335 335 336 337 338 340 348 356 358 356 354 353 351 351 352 352 353 355 355 354 355 355 353 351 349 349 353 355 356 355 338 318 313 309 303 308 296 253 241 241 237 231 224 222 223 224 226 226 218 215 221 225 224 223 220 215 215 216 217 218 221 227 238 253 275 288 282 270 261 254 250 245 230 217 221 224 206 186 182 185 193 209 225 242 264
331 332 335 339 344 352 358 360 357 354 352 352 352 353 355 354 353 352 351 349 348 347 348 348 346 343 344 348 354 358 351 332 318 308 300 299 298 276 255 248 242 237 231 228 230 231 230 228 219 215 221 226 226 225 224 222 224 225 223 222 224 229 238 249 271 288 289 279 268 255 241 226 215 214 217 206 187 180 185 194 202 217 227 236 260
329 331 336 343 353 359 359 358 356 355 355 355 354 354 353 352 352 352 350 349 347 345 344 343 342 342 340 342 349 356 356 347 335 318 299 290 289 283 264 250 245 242 239 236 235 234 233 229 221 219 226 230 230 233 235 235 235 235 233 230 228 230 237 244 262 283 288 281 268 247 224 212 216 219 209 195 186 185 192 201 209 217 220 222 242
328 333 339 346 354 355 355 356 356 356 358 358 356 355 353 350 350 349 347 348 347 345 343 341 339 340 338 339 345 352 351 347 341 332 313 283 273 273 267 256 247 244 242 239 237 236 236 234 230 229 232 231 231 237 244 243 240 239 238 236 233 233 235 239 251 271 282 282 268 237 214 208 216 214 201 194 193 195 201 205 206 203 200 199 213
326 333 340 345 350 351 352 355 356 358 1 1 359 359 357 354 351 347 345 345 345 342 341 339 337 336 336 337 341 346 350 355 354 347 333 301 273 263 262 258 251 246 244 241 239 237 237 236 233 230 229 229 232 241 250 251 246 240 236 235 234 233 234 236 244 260 277 283 266 232 212 206 210 208 201 198 200 203 209 213 205 194 192 189 193
327 333 339 342 344 347 349 352 354 356 359 0 1 0 0 358 353 347 345 343 341 340 338 335 334 334 335 337 339 343 354 6 10 2 349 333 311 283 264 257 251 246 244 242 240 239 240 238 229 224 224 227 233 241 246 249 249 241 233 230 230 231 232 235 241 253 269 276 260 231 215 210 209 207 204 203 205 208 215 219 210 196 191 185 181
327 330 333 336 338 340 343 346 349 351 354 357 359 358 360 0 356 352 351 345 338 333 332 334 337 338 338 338 340 346 358 8 7 354 338 324 315 300 280 266 254 248 246 244 239 238 240 239 230 223 223 226 230 237 240 241 244 243 233 227 226 227 228 232 237 244 257 267 257 233 218 212 212 212 208 207 208 211 214 217 213 200 192 185 174
323 326 327 332 335 337 337 339 344 347 349 352 354 355 359 0 358 358 1 356 342 332 333 343 350 353 353 350 348 353 3 7 2 350 333 308 285 275 281 280 267 258 254 246 237 232 231 232 228 224 223 224 226 231 234 233 235 235 229 224 222 223 224 229 235 241 251 264 260 240 224 216 214 216 213 209 210 212 212 214 211 203 196 188 179
318 321 324 330 335 336 335 334 337 342 346 349 350 349 351 357 1 2 5 4 356 343 346 359 1 0 4 8 8 9 10 8 2 355 347 333 299 268 263 271 273 269 261 246 234 227 224 223 223 222 221 221 223 227 229 228 227 226 223 220 219 221 225 231 238 243 251 262 262 248 231 221 216 215 215 212 210 211 213 214 212 206 201 193 182
313 316 322 329 334 338 337 334 332 334 339 346 349 348 346 350 358 5 7 7 5 357 354 3 5 4 5 10 16 20 18 11 3 357 354 351 339 307 275 264 262 263 259 243 228 224 222 219 218 220 220 222 225 228 229 230 228 224 221 218 220 224 228 234 240 246 254 261 260 248 234 225 218 214 213 212 213 216 216 215 212 207 206 201 190
304 311 318 325 332 337 339 336 333 330 331 338 345 349 348 346 349 357 5 9 9 7 360 355 358 2 4 5 9 15 18 16 10 2 358 356 352 342 315 289 279 269 256 238 225 225 224 221 220 221 221 223 228 230 231 231 231 227 222 220 225 230 234 239 245 252 257 260 256 243 229 222 217 213 210 211 217 220 218 215 213 210 208 207 197
295 303 310 318 327 334 337 337 334 329 327 331 338 344 346 344 341 343 350 359 5 10 9 357 342 342 348 352 357 5 13 16 13 8 6 4 1 359 343 310 295 277 245 229 226 227 227 227 228 227 225 226 232 234 232 232 233 230 227 227 232 238 243 249 253 254 255 256 252 240 226 218 214 212 211 214 219 223 220 217 215 210 206 206 202
287 294 301 310 319 328 334 336 333 329 325 327 331 336 341 343 340 338 340 346 351 357 2 3 352 338 335 338 345 353 3 10 12 12 12 13 14 14 10 352 322 281 242 234 234 234 232 231 233 235 234 235 237 238 237 237 236 233 232 234 238 244 248 251 253 251 248 246 242 231 222 217 214 213 215 217 219 222 222 217 211 206 203 204 205
281 288 295 301 310 321 329 332 332 329 326 324 327 331 335 339 341 340 338 338 340 344 350 356 358 353 350 346 340 340 354 4 9 10 11 12 16 16 13 11 9 345 265 248 247 247 245 243 243 243 244 244 244 244 243 243 241 239 238 240 243 246 248 247 248 248 243 237 229 219 214 214 216 218 222 222 218 218 220 215 210 207 206 205 206
276 284 291 296 304 316 324 329 331 329 325 322 324 327 328 331 336 339 339 336 337 340 345 349 351 355 3 11 3 345 348 360 3 6 9 11 12 12 9 6 4 345 304 279 269 265 262 259 257 255 253 251 251 251 249 248 247 246 247 248 248 249 248 246 244 242 239 236 229 220 213 212 216 222 226 224 221 221 223 221 216 213 211 211 212
275 281 287 293 301 312 321 326 329 328 323 318 318 322 323 323 327 332 334 332 336 343 346 347 348 351 357 6 6 356 351 359 0 4 11 14 12 9 5 0 351 337 320 307 295 284 278 273 269 267 263 259 258 256 254 253 253 252 252 252 251 249 248 244 238 236 241 243 236 225 217 212 215 221 222 218 219 222 225 225 222 218 215 215 214
274 278 283 290 298 308 317 322 326 327 323 315 313 317 318 316 319 324 324 323 332 343 347 349 353 353 350 350 353 351 351 0 3 5 9 9 5 1 358 353 345 335 324 317 309 296 288 284 281 278 274 270 266 263 259 257 255 252 252 252 250 248 245 240 235 235 244 249 243 232 222 215 215 219 218 215 216 221 223 223 222 217 214 213 211
271 276 280 287 295 305 313 318 322 325 322 313 309 311 311 311 315 318 313 314 328 338 344 350 357 356 349 343 343 346 349 357 3 2 359 357 355 352 349 345 340 332 322 316 311 301 291 286 283 282 282 279 274 269 264 259 255 252 251 250 248 242 234 231 231 235 243 251 249 235 223 217 218 219 218 215 216 221 224 223 220 217 216 216 216
269 273 277 284 293 301 309 314 318 321 318 309 304 304 303 306 311 311 303 307 320 330 342 355 2 1 354 346 344 348 355 0 2 357 353 352 352 348 343 339 336 330 323 318 313 305 295 285 279 278 282 283 280 275 269 262 256 252 250 246 241 235 229 227 229 233 239 246 243 228 218 218 219 219 217 216 218 222 226 224 220 218 219 222 222
266 270 275 282 291 298 305 311 316 318 314 304 298 297 296 299 303 297 283 291 309 323 345 4 16 18 11 2 359 359 357 354 351 350 352 356 353 345 340 338 335 329 323 320 316 311 305 294 282 276 277 281 282 278 270 261 251 245 243 241 239 239 238 235 234 235 236 236 234 225 219 220 220 218 218 219 223 227 229 226 221 219 220 222 221
261 265 272 280 288 295 304 311 315 315 310 300 293 291 291 292 290 273 262 277 301 324 346 6 22 28 22 12 6 360 353 354 358 359 0 0 357 352 349 344 336 329 325 320 317 320 329 326 306 287 280 281 282 276 264 253 246 242 243 246 247 248 246 241 237 238 239 238 239 241 238 230 226 223 222 225 230 232 230 224 220 219 220 218 214
257 263 270 277 284 293 305 312 313 310 304 296 290 286 283 277 264 250 257 276 299 321 339 356 11 19 17 9 1 357 1 9 11 7 3 2 3 5 0 350 338 333 331 325 318 327 350 356 350 331 310 294 284 273 256 244 246 254 260 262 262 259 254 247 241 238 235 233 233 237 240 240 236 231 229 232 234 231 225 219 215 216 219 216 207
254 260 266 273 282 294 306 310 308 302 297 293 288 282 274 260 246 247 263 279 294 315 333 348 359 6 9 8 5 2 5 8 4 0 4 7 8 9 5 354 344 340 339 334 319 299 316 337 345 345 343 340 302 271 262 262 274 286 288 285 282 274 262 254 247 240 234 229 227 229 235 240 239 235 234 234 231 222 216 214 213 214 215 210 201
252 258 264 271 282 295 303 304 299 294 292 289 284 276 265 251 246 254 269 282 293 311 327 339 349 353 357 7 13 14 16 14 7 10 21 23 19 16 11 2 352 345 343 339 324 294 290 303 312 313 314 317 305 281 275 278 282 288 294 297 298 293 283 268 255 245 240 237 232 230 236 240 238 234 233 230 225 219 216 216 215 212 209 205 200
251 255 262 271 283 293 296 292 286 286 286 281 275 270 261 255 258 264 275 291 309 324 330 338 346 344 345 356 7 12 16 14 10 14 24 28 27 23 17 10 0 350 345 340 327 306 294 294 296 296 296 296 290 284 282 277 271 272 277 283 285 289 294 291 270 248 242 241 239 238 242 242 235 228 226 224 222 220 218 215 212 209 207 205 203
250 254 262 272 282 286 282 273 270 274 278 276 275 273 265 261 262 269 283 302 323 338 344 348 350 346 344 346 349 352 356 356 355 357 1 7 17 20 17 12 6 358 352 347 338 325 310 298 293 290 288 286 282 280 283 283 275 268 267 270 271 273 280 289 286 265 249 244 239 238 238 235 226 222 224 223 219 217 214 210 207 205 206 207 206
249 254 263 273 278 273 263 257 259 266 273 275 273 268 261 257 255 262 288 315 335 345 350 351 349 346 343 340 337 337 339 342 345 346 346 350 3 13 13 9 6 1 359 356 351 345 338 326 310 295 286 284 281 279 280 284 284 279 274 275 279 278 276 280 286 284 270 251 237 231 228 224 221 222 223 222 218 216 214 211 208 205 206 208 208
247 253 261 269 269 261 255 255 259 265 270 272 267 262 259 254 253 264 292 322 337 342 344 345 343 339 335 333 332 331 332 339 348 353 351 352 0 8 7 4 2 3 5 5 1 356 351 347 339 322 300 287 282 282 285 287 289 289 284 281 283 286 281 274 274 280 284 277 256 243 235 226 221 221 222 221 219 217 216 215 212 209 208 209 208
245 252 259 262 260 255 254 257 262 267 270 268 261 256 253 249 253 271 288 302 321 336 343 344 342 339 336 333 332 332 336 347 355 356 353 352 355 359 0 1 4 9 11 9 5 359 354 353 355 350 337 315 293 287 291 294 296 298 294 286 284 287 285 277 273 277 282 280 265 254 246 232 222 221 223 223 219 215 215 215 212 209 209 209 208
244 252 256 255 252 250 252 258 264 269 268 261 251 246 246 249 262 279 284 282 299 331 346 344 340 337 333 330 328 328 334 344 349 350 350 349 348 351 357 4 10 13 11 5 1 358 357 359 2 4 0 353 338 317 312 315 319 318 309 296 286 283 281 281 278 274 269 260 247 244 245 235 222 218 220 220 217 213 213 214 213 211 211 211 210